TimeMDT,TemperatureF,Dew PointF,Humidity,Sea Level PressureIn,VisibilityMPH,Wind Direction,Wind SpeedMPH,Gust SpeedMPH,PrecipitationIn,Events,Conditions,WindDirDegrees,DateUTC
12:15 AM,67.8,54.0,61,30.26,10.0,NW,5.8,-,N/A,,Scattered Clouds,320,2013-07-08 06:15:00
12:35 AM,66.9,53.4,62,30.26,10.0,NW,3.5,-,N/A,,Clear,320,2013-07-08 06:35:00
12:55 AM,65.8,55.2,69,30.26,10.0,NNW,6.9,-,N/A,,Clear,340,2013-07-08 06:55:00
1:15 AM,68.2,53.2,59,30.27,10.0,NNE,11.5,-,N/A,,Scattered Clouds,20,2013-07-08 07:15:00
1:35 AM,66.6,54.5,65,30.28,10.0,North,10.4,-,N/A,,Scattered Clouds,360,2013-07-08 07:35:00
1:55 AM,65.5,54.7,68,30.28,10.0,North,5.8,-,N/A,,Mostly Cloudy,360,2013-07-08 07:55:00
2:15 AM,64.6,54.7,70,30.28,10.0,NW,3.5,-,N/A,,Overcast,310,2013-07-08 08:15:00
2:35 AM,65.1,54.1,68,30.28,10.0,NW,4.6,-,N/A,,Scattered Clouds,310,2013-07-08 08:35:00
2:55 AM,63.7,55.0,73,30.29,10.0,NW,4.6,-,N/A,,Mostly Cloudy,310,2013-07-08 08:55:00
3:15 AM,64.4,54.9,71,30.28,10.0,NW,6.9,-,N/A,,Overcast,310,2013-07-08 09:15:00
3:35 AM,64.4,54.9,71,30.28,10.0,WNW,5.8,-,N/A,,Mostly Cloudy,290,2013-07-08 09:35:00
3:55 AM,64.2,54.7,71,30.28,10.0,WNW,3.5,-,N/A,,Scattered Clouds,300,2013-07-08 09:55:00
4:15 AM,63.7,54.9,73,30.28,10.0,Calm,Calm,-,N/A,,Clear,0,2013-07-08 10:15:00
4:55 AM,61.3,55.4,81,30.29,10.0,Calm,Calm,-,N/A,,Scattered Clouds,0,2013-07-08 10:55:00
5:15 AM,59.7,55.6,86,30.29,10.0,Calm,Calm,-,N/A,,Scattered Clouds,0,2013-07-08 11:15:00
5:35 AM,61.2,55.9,83,30.29,10.0,Calm,Calm,-,N/A,,Scattered Clouds,0,2013-07-08 11:35:00
5:55 AM,61.9,55.4,79,30.29,10.0,Calm,Calm,-,N/A,,Scattered Clouds,0,2013-07-08 11:55:00
6:15 AM,61.0,56.3,85,30.30,10.0,Calm,Calm,-,N/A,,Scattered Clouds,0,2013-07-08 12:15:00
6:35 AM,61.9,56.1,81,30.31,10.0,Calm,Calm,-,N/A,,Scattered Clouds,0,2013-07-08 12:35:00
6:55 AM,61.7,56.7,84,30.31,10.0,Calm,Calm,-,N/A,,Overcast,0,2013-07-08 12:55:00
7:15 AM,62.8,57.2,82,30.32,10.0,Calm,Calm,-,N/A,,Mostly Cloudy,0,2013-07-08 13:15:00
7:35 AM,63.0,56.5,79,30.32,10.0,NNW,5.8,-,N/A,,Clear,330,2013-07-08 13:35:00
7:55 AM,65.1,56.1,73,30.33,10.0,North,4.6,-,N/A,,Clear,360,2013-07-08 13:55:00
8:15 AM,66.9,55.9,68,30.34,10.0,North,6.9,-,N/A,,Clear,350,2013-07-08 14:15:00
8:35 AM,68.0,56.1,66,30.34,10.0,NNW,4.6,-,N/A,,Clear,330,2013-07-08 14:35:00
8:55 AM,69.4,55.9,62,30.35,10.0,NW,3.5,-,N/A,,Clear,320,2013-07-08 14:55:00
9:15 AM,71.2,54.7,56,30.35,10.0,North,5.8,-,N/A,,Clear,10,2013-07-08 15:15:00
9:35 AM,70.7,55.0,58,30.35,10.0,NNW,5.8,-,N/A,,Clear,330,2013-07-08 15:35:00
9:55 AM,71.2,55.2,57,30.35,10.0,North,4.6,-,N/A,,Clear,350,2013-07-08 15:55:00
10:15 AM,71.6,53.1,52,30.35,10.0,North,5.8,-,N/A,,Scattered Clouds,350,2013-07-08 16:15:00
10:35 AM,72.0,52.9,51,30.35,10.0,NNW,5.8,-,N/A,,Scattered Clouds,330,2013-07-08 16:35:00
10:55 AM,72.7,52.0,48,30.35,10.0,NW,5.8,-,N/A,,Clear,320,2013-07-08 16:55:00
11:15 AM,73.8,51.1,45,30.35,10.0,NNW,3.5,-,N/A,,Clear,330,2013-07-08 17:15:00
11:35 AM,75.4,50.2,41,30.35,10.0,NNW,5.8,-,N/A,,Clear,330,2013-07-08 17:35:00
11:55 AM,77.5,50.2,38,30.34,10.0,NNW,5.8,-,N/A,,Clear,340,2013-07-08 17:55:00
12:15 PM,79.9,48.4,33,30.34,10.0,NNW,6.9,-,N/A,,Clear,340,2013-07-08 18:15:00
12:35 PM,81.1,44.8,28,30.33,10.0,NNW,4.6,-,N/A,,Clear,340,2013-07-08 18:35:00
12:55 PM,83.3,44.2,25,30.32,10.0,NW,8.1,-,N/A,,Clear,320,2013-07-08 18:55:00
1:15 PM,82.6,44.2,26,30.31,10.0,NW,6.9,-,N/A,,Clear,310,2013-07-08 19:15:00
1:35 PM,83.8,43.9,25,30.30,10.0,North,6.9,-,N/A,,Clear,10,2013-07-08 19:35:00
1:55 PM,83.3,42.6,24,30.29,10.0,NNW,3.5,9.2,N/A,,Clear,330,2013-07-08 19:55:00
2:15 PM,84.9,42.1,22,30.28,10.0,NW,9.2,-,N/A,,Clear,310,2013-07-08 20:15:00
2:35 PM,85.5,43.2,23,30.28,10.0,East,3.5,-,N/A,,Clear,80,2013-07-08 20:35:00
2:55 PM,85.3,41.5,21,30.27,10.0,East,3.5,-,N/A,,Clear,80,2013-07-08 20:55:00
3:15 PM,88.0,45.0,22,30.26,10.0,Calm,Calm,-,N/A,,Clear,0,2013-07-08 21:15:00
3:35 PM,89.1,44.6,21,30.25,10.0,East,5.8,-,N/A,,Clear,80,2013-07-08 21:35:00
3:55 PM,87.3,42.6,21,30.24,10.0,NNE,5.8,-,N/A,,Scattered Clouds,20,2013-07-08 21:55:00
4:15 PM,87.4,42.8,21,30.24,10.0,NE,4.6,-,N/A,,Scattered Clouds,50,2013-07-08 22:15:00
4:35 PM,85.6,43.0,22,30.24,10.0,North,5.8,-,N/A,,Scattered Clouds,350,2013-07-08 22:35:00
4:55 PM,85.6,43.7,23,30.24,10.0,NNE,6.9,-,N/A,,Clear,30,2013-07-08 22:55:00
5:15 PM,85.1,44.1,24,30.23,10.0,North,13.8,21.9,N/A,Thunderstorm,Thunderstorm,10,2013-07-08 23:15:00
5:35 PM,85.1,43.3,23,30.24,10.0,North,8.1,-,N/A,Thunderstorm,Thunderstorm,350,2013-07-08 23:35:00
5:55 PM,84.6,41.9,22,30.24,10.0,North,11.5,17.3,N/A,,Mostly Cloudy,350,2013-07-08 23:55:00
6:15 PM,83.8,41.2,22,30.24,10.0,NNW,10.4,-,N/A,,Overcast,340,2013-07-09 00:15:00
6:35 PM,82.8,43.3,25,30.24,10.0,West,8.1,-,N/A,Thunderstorm,Mostly Cloudy,270,2013-07-09 00:35:00
6:55 PM,78.6,46.4,32,30.26,10.0,WSW,12.7,18.4,N/A,,Mostly Cloudy,240,2013-07-09 00:55:00
7:15 PM,74.8,49.1,40,30.25,10.0,WSW,16.1,26.5,N/A,Thunderstorm,Scattered Clouds,240,2013-07-09 01:15:00
7:35 PM,74.5,49.8,42,30.26,10.0,SW,12.7,19.6,N/A,Thunderstorm,Overcast,230,2013-07-09 01:35:00
7:55 PM,74.1,50.7,44,30.29,10.0,SSE,13.8,21.9,N/A,,Overcast,150,2013-07-09 01:55:00
8:15 PM,71.4,52.5,51,30.32,10.0,SSW,9.2,18.4,N/A,Rain,Light Rain,200,2013-07-09 02:15:00
8:35 PM,68.2,56.1,65,30.34,10.0,SSW,8.1,-,N/A,Rain,Light Rain,200,2013-07-09 02:35:00
8:55 PM,68.4,56.7,66,30.34,10.0,ESE,13.8,17.3,N/A,,Overcast,120,2013-07-09 02:55:00
9:15 PM,67.3,58.1,72,30.37,10.0,SE,9.2,20.7,N/A,Rain,Light Rain,140,2013-07-09 03:15:00
9:35 PM,66.0,58.6,77,30.38,10.0,SE,15.0,-,N/A,,Light Drizzle,140,2013-07-09 03:35:00
9:55 PM,64.9,59.4,82,30.40,10.0,SE,13.8,20.7,N/A,,Scattered Clouds,140,2013-07-09 03:55:00
10:15 PM,64.4,58.3,80,30.40,10.0,SSE,11.5,-,N/A,,Scattered Clouds,150,2013-07-09 04:15:00
10:35 PM,63.7,58.6,84,30.41,10.0,SE,11.5,-,N/A,,Scattered Clouds,140,2013-07-09 04:35:00
10:55 PM,64.4,58.1,80,30.42,10.0,SE,12.7,-,N/A,,Scattered Clouds,140,2013-07-09 04:55:00
11:15 PM,64.0,58.5,82,30.41,10.0,SE,11.5,-,N/A,Thunderstorm,Scattered Clouds,140,2013-07-09 05:15:00
11:35 PM,63.7,59.0,85,30.40,10.0,SSE,8.1,-,N/A,,Mostly Cloudy,160,2013-07-09 05:35:00
11:55 PM,63.5,59.2,86,30.40,10.0,SSE,11.5,-,N/A,,Scattered Clouds,160,2013-07-09 05:55:00